• In Hungary
  • List of Countries
  • For 7 days
  • Water Temperature
  • Satellite Maps
  • Weather Map
  • News
  • Weather Widgets
  • user-avatar
    Login

    Hourly Weather Oruro

    Today, 22 May, Tuesday

    Time Temperature Precipitation Wind Pressure Humidity
    00:00 +5°C° 0 mm 1 mps 473 mmHg 40%
    01:00 +4°C° 0 mm 1 mps 473 mmHg 45%
    02:00 +3°C° 0 mm 2 mps 472 mmHg 58%
    03:00 +3°C° 0 mm 1 mps 472 mmHg 61%
    04:00 +3°C° 0 mm 1 mps 472 mmHg 64%
    05:00 +2°C° 0 mm 1 mps 471 mmHg 67%
    06:00 +3°C° 0 mm 1 mps 472 mmHg 61%
    07:00 +3°C° 0 mm 2 mps 473 mmHg 56%
    08:00 +4°C° 0 mm 2 mps 475 mmHg 51%
    09:00 +7°C° 0 mm 2 mps 476 mmHg 42%
    10:00 +9°C° 0 mm 3 mps 477 mmHg 32%
    11:00 +11°C° 0 mm 3 mps 479 mmHg 22%
    12:00 +12°C° 0 mm 3 mps 479 mmHg 20%
    13:00 +13°C° 0 mm 3 mps 479 mmHg 18%
    14:00 +14°C° 0 mm 4 mps 479 mmHg 16%
    15:00 +14°C° 0 mm 4 mps 479 mmHg 18%
    16:00 +13°C° 0 mm 4 mps 478 mmHg 20%
    17:00 +13°C° 0 mm 4 mps 478 mmHg 22%
    18:00 +11°C° 0 mm 4 mps 477 mmHg 33%
    19:00 +8°C° 0 mm 4 mps 476 mmHg 45%
    20:00 +6°C° 0 mm 4 mps 475 mmHg 57%
    21:00 +5°C° 0 mm 3 mps 475 mmHg 62%
    22:00 +4°C° 0 mm 3 mps 475 mmHg 66%
    23:00 +5°C° 0 mm 2 mps 475 mmHg 70%

    Tomorrow, 23 May, Wednesday

    Time Temperature Precipitation Wind Pressure Humidity
    00:00 +4°C° 0 mm 2 mps 474 mmHg 70%
    01:00 +4°C° 0 mm 2 mps 474 mmHg 69%
    02:00 +3°C° 0 mm 2 mps 474 mmHg 69%
    03:00 +3°C° 0 mm 2 mps 474 mmHg 68%
    04:00 +3°C° 0 mm 2 mps 473 mmHg 68%
    05:00 +2°C° 0 mm 2 mps 473 mmHg 67%
    06:00 +3°C° 0 mm 2 mps 474 mmHg 64%
    07:00 +4°C° 0 mm 2 mps 475 mmHg 60%
    08:00 +4°C° 0 mm 2 mps 475 mmHg 57%
    09:00 +6°C° 0 mm 2 mps 477 mmHg 48%
    10:00 +9°C° 0 mm 2 mps 478 mmHg 40%
    11:00 +11°C° 0 mm 3 mps 479 mmHg 32%
    12:00 +12°C° 0 mm 3 mps 479 mmHg 29%
    13:00 +12°C° 0 mm 3 mps 479 mmHg 26%
    14:00 +13°C° 0 mm 3 mps 479 mmHg 23%
    15:00 +13°C° 0 mm 3 mps 479 mmHg 23%
    16:00 +13°C° 0 mm 3 mps 479 mmHg 23%
    17:00 +13°C° 0 mm 3 mps 478 mmHg 23%
    18:00 +12°C° 0 mm 2 mps 478 mmHg 30%
    19:00 +9°C° 0 mm 2 mps 477 mmHg 37%
    20:00 +7°C° 0 mm 2 mps 476 mmHg 43%
    21:00 +7°C° 0 mm 2 mps 476 mmHg 49%
    22:00 +6°C° 0 mm 2 mps 476 mmHg 54%
    23:00 +5°C° 0 mm 2 mps 476 mmHg 59%

    Day after tomorrow, 24 May, Thursday

    Time Temperature Precipitation Wind Pressure Humidity
    00:00 +5°C° 0 mm 2 mps 475 mmHg 62%
    01:00 +4°C° 0 mm 2 mps 475 mmHg 65%
    02:00 +4°C° 0 mm 2 mps 474 mmHg 68%
    03:00 +3°C° 0 mm 2 mps 474 mmHg 69%
    04:00 +3°C° 0 mm 2 mps 474 mmHg 70%
    05:00 +2°C° 0 mm 2 mps 473 mmHg 71%
    06:00 +3°C° 0 mm 2 mps 474 mmHg 68%
    07:00 +4°C° 0 mm 2 mps 475 mmHg 64%
    08:00 +4°C° 0 mm 2 mps 476 mmHg 60%
    09:00 +6°C° 0 mm 2 mps 477 mmHg 52%
    10:00 +8°C° 0 mm 3 mps 479 mmHg 44%
    11:00 +10°C° 0 mm 3 mps 480 mmHg 35%
    12:00 +11°C° 0 mm 3 mps 480 mmHg 32%
    13:00 +12°C° 0 mm 4 mps 480 mmHg 28%
    14:00 +13°C° 0 mm 4 mps 480 mmHg 25%
    15:00 +13°C° 0 mm 4 mps 479 mmHg 27%
    16:00 +13°C° 0 mm 4 mps 479 mmHg 29%
    17:00 +12°C° 0 mm 4 mps 478 mmHg 31%
    18:00 +11°C° 0 mm 3 mps 478 mmHg 38%
    19:00 +10°C° 0 mm 3 mps 477 mmHg 46%
    20:00 +8°C° 0 mm 2 mps 477 mmHg 54%
    21:00 +7°C° 0 mm 2 mps 477 mmHg 57%
    22:00 +6°C° 0 mm 2 mps 476 mmHg 60%
    23:00 +6°C° 0 mm 2 mps 476 mmHg 64%

    25 May, Friday

    Time Temperature Precipitation Wind Pressure Humidity
    00:00 +6°C° 0 mm 1 mps 476 mmHg 64%
    01:00 +6°C° 0 mm 1 mps 475 mmHg 65%
    02:00 +5°C° 0 mm 1 mps 475 mmHg 65%
    03:00 +4°C° 0 mm 1 mps 474 mmHg 66%
    04:00 +4°C° 0 mm 1 mps 474 mmHg 67%
    05:00 +3°C° 0 mm 1 mps 473 mmHg 67%
    06:00 +4°C° 0 mm 1 mps 474 mmHg 63%
    07:00 +5°C° 0 mm 1 mps 476 mmHg 58%
    08:00 +6°C° 0 mm 1 mps 477 mmHg 54%
    09:00 +8°C° 0 mm 1 mps 477 mmHg 45%
    10:00 +10°C° 0 mm 1 mps 478 mmHg 37%
    11:00 +10°C° 0 mm 2 mps 479 mmHg 28%
    12:00 +12°C° 0 mm 2 mps 479 mmHg 24%
    13:00 +13°C° 0 mm 2 mps 479 mmHg 20%
    14:00 +14°C° 0 mm 2 mps 479 mmHg 16%
    15:00 +14°C° 0 mm 2 mps 479 mmHg 16%
    16:00 +14°C° 0 mm 2 mps 478 mmHg 16%
    17:00 +13°C° 0 mm 2 mps 478 mmHg 17%
    18:00 +12°C° 0 mm 2 mps 477 mmHg 23%
    19:00 +9°C° 0 mm 2 mps 477 mmHg 29%
    20:00 +7°C° 0 mm 2 mps 476 mmHg 36%
    21:00 +6°C° 0 mm 2 mps 475 mmHg 40%
    22:00 +5°C° 0 mm 2 mps 475 mmHg 44%
    23:00 +6°C° 0 mm 1 mps 475 mmHg 49%

    26 May, Saturday

    Time Temperature Precipitation Wind Pressure Humidity
    00:00 +5°C° 0 mm 1 mps 474 mmHg 51%
    01:00 +5°C° 0 mm 1 mps 474 mmHg 54%
    02:00 +4°C° 0 mm 1 mps 473 mmHg 57%
    03:00 +4°C° 0 mm 1 mps 473 mmHg 57%
    04:00 +3°C° 0 mm 1 mps 472 mmHg 58%
    05:00 +2°C° 0 mm 1 mps 472 mmHg 59%
    06:00 +3°C° 0 mm 1 mps 473 mmHg 55%
    07:00 +5°C° 0 mm 1 mps 474 mmHg 50%
    08:00 +6°C° 0 mm 1 mps 476 mmHg 46%
    09:00 +7°C° 0 mm 2 mps 477 mmHg 38%
    10:00 +9°C° 0 mm 2 mps 478 mmHg 31%
    11:00 +10°C° 0 mm 2 mps 479 mmHg 23%
    12:00 +12°C° 0 mm 2 mps 479 mmHg 20%
    13:00 +12°C° 0 mm 3 mps 479 mmHg 17%
    14:00 +13°C° 0 mm 3 mps 479 mmHg 14%
    15:00 +13°C° 0 mm 3 mps 478 mmHg 14%
    16:00 +14°C° 0 mm 2 mps 478 mmHg 14%
    17:00 +14°C° 0 mm 2 mps 478 mmHg 14%
    18:00 +12°C° 0 mm 2 mps 477 mmHg 19%
    19:00 +9°C° 0 mm 2 mps 476 mmHg 25%
    20:00 +7°C° 0 mm 2 mps 475 mmHg 30%
    21:00 +6°C° 0 mm 2 mps 475 mmHg 33%
    22:00 +6°C° 0 mm 1 mps 474 mmHg 36%
    23:00 +5°C° 0 mm 1 mps 474 mmHg 39%

    27 May, Sunday

    Time Temperature Precipitation Wind Pressure Humidity
    00:00 +5°C° 0 mm 1 mps 473 mmHg 40%
    01:00 +4°C° 0 mm 1 mps 473 mmHg 42%
    02:00 +4°C° 0 mm 1 mps 472 mmHg 44%
    03:00 +3°C° 0 mm 1 mps 472 mmHg 47%
    04:00 +3°C° 0 mm 1 mps 472 mmHg 49%
    05:00 +2°C° 0 mm 1 mps 471 mmHg 52%
    06:00 +3°C° 0 mm 1 mps 473 mmHg 50%
    07:00 +4°C° 0 mm 1 mps 474 mmHg 48%
    08:00 +5°C° 0 mm 2 mps 475 mmHg 46%
    09:00 +7°C° 0 mm 2 mps 476 mmHg 39%
    10:00 +9°C° 0 mm 2 mps 478 mmHg 31%
    11:00 +11°C° 0 mm 3 mps 479 mmHg 24%
    12:00 +12°C° 0 mm 3 mps 479 mmHg 22%
    13:00 +13°C° 0 mm 3 mps 479 mmHg 19%
    14:00 +14°C° 0 mm 3 mps 479 mmHg 17%
    15:00 +13°C° 0 mm 3 mps 479 mmHg 18%
    16:00 +13°C° 0 mm 3 mps 478 mmHg 19%
    17:00 +13°C° 0 mm 3 mps 478 mmHg 20%
    18:00 +11°C° 0 mm 3 mps 477 mmHg 29%
    19:00 +9°C° 0 mm 3 mps 476 mmHg 38%
    20:00 +7°C° 0 mm 2 mps 475 mmHg 46%
    21:00 +6°C° 0 mm 2 mps 475 mmHg 51%
    22:00 +6°C° 0 mm 2 mps 475 mmHg 55%
    23:00 +5°C° 0 mm 2 mps 475 mmHg 59%
    Show more